Regional Weather Roundup
Issued by NWS

Home | Current Version | Previous Version | Text Only | Print | Product List | Glossary Off
Versions: 1 2 3 4 5 6 7 8 9 10 11 12 13 14 15 16 17 18 19 20 21 22 23 24 25 26 27 28 29 30 31 32 33 34 35 36 37 38 39 40 41 42 43 44 45 46 47 48 49 50

000
ASUS43 KMKX 301300
RWRWI

WISCONSIN REGIONAL WEATHER ROUNDUP
NATIONAL WEATHER SERVICE MILWAUKEE/SULLIVAN WI
800 AM CDT SAT AUG 30 2014

NOTE: "FAIR" INDICATES FEW OR NO CLOUDS BELOW 12,000 FEET WITH NO
SIGNIFICANT WEATHER AND/OR OBSTRUCTIONS TO VISIBILITY.

WIZ001-002-006>008-014>016-023>028-301400-
NORTHWEST WISCONSIN

CITY           SKY/WX    TMP DP  RH WIND       PRES   REMARKS
SUPERIOR ARPT  PTSUNNY   60  60 100 CALM      29.83S FOG
ASHLAND        CLOUDY    61  60  97 N6        29.83R
HAYWARD        CLOUDY    61  60  97 NE8       29.82R FOG
SIREN          CLOUDY    63  61  96 NE5       29.83R
RICE LAKE      CLOUDY    65  64  96 NW6       29.81S
LADYSMITH      LGT RAIN  65  64  97 NE3       29.80S
EAU CLAIRE       N/A     67  66  97 NW3       29.77R
MENOMONIE      CLOUDY    66  66  98 CALM      29.78S
NEW RICHMOND   CLOUDY    64  63  98 N6        29.81R
OSCEOLA        CLOUDY    64  64 100 N3        29.84R
$$

WIZ003>005-009-010-017-018-301400-
NORTH CENTRAL WISCONSIN

CITY           SKY/WX    TMP DP  RH WIND       PRES   REMARKS
WOODRUFF       RAIN      64  63  95 CALM      29.79S
RHINELANDER    CLOUDY    64  63  96 N3        29.79S
EAGLE RIVER    LGT RAIN  64  64 100 CALM      29.78S
LAND O LAKES   RAIN      64  64 100 CALM      29.79S
PHILLIPS       DRIZZLE   63  63  99 CALM      29.78S
TOMAHAWK       FOG       63  62  97 CALM      29.79S VSB 1/2
MEDFORD        CLOUDY    64  64  99 CALM      29.78S FOG
MERRILL        CLOUDY    64  64 100 CALM      29.78S FOG
$$

WIZ029-030-035-036-043>047-301400-
CENTRAL WISCONSIN

CITY           SKY/WX    TMP DP  RH WIND       PRES   REMARKS
WAUSAU         CLOUDY    66  65  96 N3        29.75S
MOSINEE        CLOUDY    64  64 100 N3        29.77S FOG
MARSHFIELD     CLOUDY    67  65  93 NW5       29.77S
STEVENS POINT  CLOUDY    64  64  99 N5        29.75S
WAUPACA        CLOUDY    70  68  95 S6        29.75S
WAUTOMA        NOT AVBL
WISC RAPIDS    CLOUDY    67  67 100 W5        29.77R
CAMP DOUGLAS   LGT RAIN  68  68 100 W6        29.77S FOG
$$

WIZ011>013-019>022-031-037>040-048>050-301400-
NORTHEAST WISCONSIN

CITY           SKY/WX    TMP DP  RH WIND       PRES   REMARKS
ANTIGO         LGT RAIN  63  63 100 CALM      29.78S
STURGEON BAY   PTSUNNY   68  66  94 SE5       29.75S
GREEN BAY      PTSUNNY   70  69  97 S5        29.75S FOG
MANITOWOC      NOT AVBL
APPLETON       PTSUNNY   70  68  94 SW8       29.76S
CLINTONVILLE   PTSUNNY   68  66  94 S7        29.73F
OSHKOSH        MOSUNNY   71  68  90 S10       29.76S
$$

WIZ032>034-041-042-053>061-301400-
SOUTHWEST WISCONSIN

CITY           SKY/WX    TMP DP  RH WIND       PRES   REMARKS
LA CROSSE      CLOUDY    70  67  90 SW5       29.76R
SPARTA         CLOUDY    66  65  97 CALM      29.78R
VIROQUA        CLOUDY    67  67 100 SW6       29.78S
BOSCOBEL       CLOUDY    71  67  87 SW3       29.77S
PRAIRIE DU CHI LGT RAIN  69  65  88 S6        29.77S
PLATTEVILLE    CLOUDY    69  68  96 S8        29.80S
$$

WIZ056-057-062-063-064-067-068-301400-
SOUTH CENTRAL WISCONSIN

CITY           SKY/WX    TMP DP  RH WIND       PRES   REMARKS
BARABOO/DELLS  CLOUDY    68  64  88 SW7       29.77S
LONE ROCK      NOT AVBL
WATERTOWN      PTSUNNY   70  69  97 S9        29.79S
MADISON        PTSUNNY   72  67  84 S12       29.78R
MIDDLETON      CLOUDY    72  70  93 SW10      29.79R
MONROE         PTSUNNY   68  64  88 SW13G20   29.80S
JANESVILLE     MOSUNNY   72  68  88 S8        29.81R
$$

WIZ051-052-058>065-066-070>072-301400-
SOUTHEAST WISCONSIN

CITY           SKY/WX    TMP DP  RH WIND       PRES   REMARKS
MILWAUKEE      PTSUNNY   72  67  84 SW13      29.81S
WAUKESHA       PTSUNNY   70  66  88 SW9       29.82R
MILWAUKEE/TIMM NOT AVBL
RACINE         MOSUNNY   72  67  84 SW8       29.83S
BURLINGTON     MOSUNNY   68  66  94 SW10      29.82R
KENOSHA        MOSUNNY   71  68  90 SW10      29.83S
FOND DU LAC    PTSUNNY   71  67  87 SW8       29.77S
SHEBOYGAN      MOSUNNY   71  67  87 SW6       29.77F
WEST BEND      PTSUNNY   70  64  83 S8        29.79S
JUNEAU         CLOUDY    70  67  93 S9        29.79F
$$

LSZ147-162-301400-
LAKE SUPERIOR

STATION/POSITION TIME  TEMP    WIND        PRES    WAVE
                       AIR SEA DIR/SP/G            HT/PER
                 (UTC) (F)     (DEG/KT/KT) (MB)    (FT/S)
W MID LAKE BUOY  1150   57 58   20/  8/ 10 1009.3R   1
DEVILS ISLAND    1200   60      30/  4/  4 1009.9R
PORT WING        1200   62      10/  5/  6 1010.2
SAXON HARBOR     1200   62      20/  8/ 11 1009.5R
$$

LMZ867-665-643>646-301400-
LAKE MICHIGAN

STATION/POSITION TIME  TEMP    WIND        PRES    WAVE
                       AIR SEA DIR/SP/G            HT/PER
                 (UTC) (F)     (DEG/KT/KT) (MB)    (FT/S)
N MID LAKE BUOY  1150   66 65  180/  8/ 10 1007.8F   3/ 6
NORTHPORT PIER   1200   67      CALM  /  3 1007.5F
SISTER BAY       1241   71     140/  3/  5   N/A
ALGOMA LAKESHORE 1038             CALM       N/A
KEWAUNEE LAKESHO 1200   63     170/  6/  6 1006.9R
SHEBOYGAN LAKESH 1200   70 58  190/  9/ 10 1008.3R
ATWATER BUOY     1200   69     220/  8/ 12 1010.0F
MILWAUKEE LAKESH 1200   73     230/  9/ 11   N/A
S MID LAKE BUOY  1205   71 69  190/ 14/ 16   N/A
KENOSHA   LAKESH 1200   74     230/ 11/ 18 1009.5S
$$

TC  - TEMPERATURE IN CELSIUS
VSB - VISIBILITY IN STATUTE MILES
WCI - WIND CHILL INDEX
HX  - HEAT INDEX




USA.gov is the U.S. government's official web portal to all federal, state and local government web resources and services.